TimeCST,TemperatureF,Dew PointF,Humidity,Sea Level PressureIn,VisibilityMPH,Wind Direction,Wind SpeedMPH,Gust SpeedMPH,PrecipitationIn,Events,Conditions,WindDirDegrees,DateUTC
12:15 AM,32.0,32.0,100,29.30,8.0,ESE,5.8,-,N/A,,Clear,120,2012-12-03 06:15:00
12:35 AM,32.0,32.0,100,29.29,7.0,SE,6.9,-,N/A,,Clear,140,2012-12-03 06:35:00
12:55 AM,32.0,32.0,100,29.29,8.0,SE,10.4,-,N/A,,Clear,140,2012-12-03 06:55:00
1:15 AM,32.0,32.0,100,29.29,8.0,South,4.6,-,N/A,,Clear,170,2012-12-03 07:15:00
1:35 AM,30.2,30.2,100,29.28,8.0,South,4.6,-,N/A,,Clear,170,2012-12-03 07:35:00
1:55 AM,32.0,32.0,100,29.29,9.0,South,4.6,-,N/A,,Clear,190,2012-12-03 07:55:00
2:15 AM,30.2,30.2,100,29.28,8.0,South,5.8,-,N/A,,Mostly Cloudy,170,2012-12-03 08:15:00
2:35 AM,32.0,32.0,100,29.27,10.0,SSE,6.9,-,N/A,,Overcast,150,2012-12-03 08:35:00
2:55 AM,32.0,32.0,100,29.29,10.0,SSW,4.6,-,N/A,,Overcast,200,2012-12-03 08:55:00
3:15 AM,32.0,32.0,100,29.29,10.0,West,5.8,-,N/A,,Overcast,270,2012-12-03 09:15:00
3:35 AM,33.8,33.8,100,29.31,10.0,WSW,3.5,-,N/A,,Overcast,240,2012-12-03 09:35:00
3:55 AM,35.6,35.6,100,29.33,10.0,WSW,3.5,-,N/A,,Overcast,250,2012-12-03 09:55:00
4:15 AM,37.4,35.6,93,29.32,10.0,West,17.3,-,N/A,,Mostly Cloudy,280,2012-12-03 10:15:00
4:35 AM,39.2,35.6,87,29.34,10.0,WNW,20.7,-,N/A,,Overcast,290,2012-12-03 10:35:00
4:55 AM,37.4,35.6,93,29.35,10.0,WNW,16.1,-,N/A,,Overcast,290,2012-12-03 10:55:00
5:15 AM,37.4,35.6,93,29.37,10.0,WNW,15.0,-,N/A,,Overcast,300,2012-12-03 11:15:00
5:35 AM,37.4,35.6,93,29.38,10.0,NW,12.7,-,N/A,,Overcast,310,2012-12-03 11:35:00
6:35 AM,35.6,35.6,100,29.42,10.0,West,21.9,28.8,N/A,Rain,Light Rain,280,2012-12-03 12:35:00
6:55 AM,35.6,35.6,100,29.42,10.0,West,20.7,-,N/A,,Overcast,280,2012-12-03 12:55:00
7:15 AM,37.4,37.4,100,29.43,10.0,West,18.4,-,N/A,,Overcast,280,2012-12-03 13:15:00
7:35 AM,37.4,37.4,100,29.44,10.0,WNW,18.4,23.0,N/A,,Overcast,290,2012-12-03 13:35:00
7:55 AM,35.6,35.6,100,29.44,10.0,West,18.4,-,N/A,,Overcast,280,2012-12-03 13:55:00
8:15 AM,37.4,35.6,93,29.45,10.0,West,20.7,27.6,N/A,,Overcast,280,2012-12-03 14:15:00
8:35 AM,35.6,35.6,100,29.46,10.0,West,21.9,26.5,N/A,,Overcast,280,2012-12-03 14:35:00
9:15 AM,35.6,33.8,93,29.46,10.0,West,24.2,31.1,N/A,,Partly Cloudy,280,2012-12-03 15:15:00
9:35 AM,35.6,32.0,87,29.47,10.0,West,26.5,40.3,N/A,,Clear,280,2012-12-03 15:35:00
9:55 AM,35.6,32.0,87,29.46,10.0,West,34.5,42.6,N/A,,Clear,280,2012-12-03 15:55:00
10:15 AM,35.6,32.0,87,29.48,10.0,West,35.7,40.3,N/A,,Clear,280,2012-12-03 16:15:00
10:35 AM,33.8,32.0,93,29.49,10.0,West,33.4,40.3,N/A,,Clear,280,2012-12-03 16:35:00
10:55 AM,32.0,30.2,93,29.50,10.0,West,32.2,44.9,N/A,,Clear,280,2012-12-03 16:55:00
11:15 AM,32.0,30.2,93,29.52,10.0,WNW,33.4,42.6,N/A,,Partly Cloudy,290,2012-12-03 17:15:00
11:35 AM,32.0,28.4,87,29.52,10.0,West,33.4,42.6,N/A,,Partly Cloudy,280,2012-12-03 17:35:00
11:55 AM,32.0,30.2,93,29.53,10.0,West,33.4,42.6,N/A,,Scattered Clouds,280,2012-12-03 17:55:00
12:15 PM,32.0,28.4,87,29.53,10.0,West,31.1,41.4,N/A,,Mostly Cloudy,280,2012-12-03 18:15:00
12:35 PM,32.0,28.4,87,29.54,10.0,WNW,35.7,42.6,N/A,,Scattered Clouds,290,2012-12-03 18:35:00
1:15 PM,28.4,24.8,86,29.58,10.0,WNW,26.5,39.1,N/A,,Overcast,290,2012-12-03 19:15:00
1:35 PM,28.4,23.0,80,29.59,10.0,WNW,33.4,40.3,N/A,,Mostly Cloudy,290,2012-12-03 19:35:00
1:55 PM,26.6,23.0,86,29.61,10.0,West,28.8,39.1,N/A,,Overcast,280,2012-12-03 19:55:00
2:15 PM,24.8,19.4,80,29.62,10.0,West,29.9,36.8,N/A,,Scattered Clouds,280,2012-12-03 20:15:00
2:35 PM,23.0,17.6,80,29.63,10.0,WNW,31.1,40.3,N/A,,Clear,290,2012-12-03 20:35:00
2:55 PM,23.0,14.0,68,29.63,10.0,West,35.7,46.0,N/A,,Clear,280,2012-12-03 20:55:00
3:15 PM,21.2,14.0,74,29.66,10.0,WNW,33.4,43.7,N/A,,Clear,290,2012-12-03 21:15:00
3:35 PM,19.4,12.2,74,29.67,10.0,WNW,26.5,29.9,N/A,,Partly Cloudy,290,2012-12-03 21:35:00
3:55 PM,17.6,12.2,79,29.69,10.0,WNW,26.5,34.5,N/A,,Mostly Cloudy,290,2012-12-03 21:55:00
4:15 PM,17.6,10.4,73,29.69,10.0,West,33.4,39.1,N/A,,Scattered Clouds,280,2012-12-03 22:15:00
4:35 PM,15.8,10.4,79,29.70,10.0,WNW,27.6,41.4,N/A,,Mostly Cloudy,290,2012-12-03 22:35:00
4:55 PM,15.8,10.4,79,29.72,10.0,WNW,25.3,36.8,N/A,,Mostly Cloudy,290,2012-12-03 22:55:00
5:15 PM,15.8,8.6,73,29.74,10.0,WNW,26.5,39.1,N/A,,Scattered Clouds,290,2012-12-03 23:15:00
5:35 PM,15.8,8.6,73,29.74,10.0,WNW,28.8,33.4,N/A,,Scattered Clouds,290,2012-12-03 23:35:00
5:55 PM,14.0,8.6,79,29.75,10.0,WNW,23.0,34.5,N/A,,Scattered Clouds,290,2012-12-03 23:55:00
6:15 PM,14.0,8.6,79,29.76,10.0,WNW,28.8,38.0,N/A,,Partly Cloudy,290,2012-12-04 00:15:00
6:35 PM,14.0,8.6,79,29.77,10.0,West,28.8,34.5,N/A,,Clear,280,2012-12-04 00:35:00
6:55 PM,14.0,8.6,79,29.79,10.0,WNW,26.5,35.7,N/A,,Clear,290,2012-12-04 00:55:00
7:15 PM,14.0,8.6,79,29.81,10.0,WNW,24.2,29.9,N/A,,Clear,290,2012-12-04 01:15:00
7:35 PM,14.0,8.6,79,29.82,10.0,West,21.9,28.8,N/A,,Partly Cloudy,280,2012-12-04 01:35:00
7:55 PM,14.0,6.8,73,29.83,10.0,West,20.7,31.1,N/A,,Partly Cloudy,280,2012-12-04 01:55:00
8:15 PM,14.0,6.8,73,29.83,10.0,West,18.4,25.3,N/A,,Clear,280,2012-12-04 02:15:00
8:35 PM,12.2,6.8,79,29.84,10.0,WNW,23.0,27.6,N/A,,Clear,290,2012-12-04 02:35:00
8:55 PM,12.2,6.8,79,29.84,10.0,WNW,29.9,35.7,N/A,,Clear,290,2012-12-04 02:55:00
9:15 PM,12.2,6.8,79,29.86,10.0,WNW,21.9,28.8,N/A,,Clear,290,2012-12-04 03:15:00
9:35 PM,10.4,6.8,85,29.87,10.0,WNW,18.4,28.8,N/A,,Clear,300,2012-12-04 03:35:00
9:55 PM,10.4,6.8,85,29.89,10.0,WNW,17.3,-,N/A,,Clear,290,2012-12-04 03:55:00
10:15 PM,10.4,5.0,79,29.91,10.0,WNW,17.3,-,N/A,,Clear,300,2012-12-04 04:15:00
10:35 PM,10.4,5.0,79,29.90,10.0,WNW,16.1,-,N/A,,Clear,290,2012-12-04 04:35:00
10:55 PM,10.4,5.0,79,29.92,10.0,WNW,12.7,-,N/A,,Clear,300,2012-12-04 04:55:00
11:15 PM,8.6,5.0,85,29.92,10.0,WNW,13.8,-,N/A,,Clear,290,2012-12-04 05:15:00
11:35 PM,8.6,5.0,85,29.93,10.0,WNW,13.8,-,N/A,,Clear,300,2012-12-04 05:35:00
11:55 PM,8.6,5.0,85,29.95,10.0,WNW,10.4,-,N/A,,Clear,290,2012-12-04 05:55:00